This is the latest recevied weather packets stored in our database for station/object KE5BM-13. If no packets are shown the sender has not sent any weather packets the latest 1 day(s).
| Time | Temp. | Humidity | Pressure | Rain* | Wind** | Luminosity | Snow |
|---|---|---|---|---|---|---|---|
| 1778040546 | 13.33° C | 89% | 1013.1 hPa | 0 mm | 2.24 m/s, 165° | - | - |
| 1778040247 | 13.89° C | 89% | 1013.1 hPa | 0 mm | 2.24 m/s, 216° | - | - |
| 1778039947 | 13.89° C | 89% | 1013.1 hPa | 0 mm | 2.68 m/s, 238° | - | - |
| 1778039647 | 13.89° C | 89% | 1013 hPa | 0 mm | 2.68 m/s, 298° | - | - |
| 1778039346 | 13.89° C | 89% | 1013 hPa | 0 mm | 2.68 m/s, 231° | - | - |
| 1778039046 | 13.89° C | 89% | 1012.9 hPa | 0 mm | 2.24 m/s, 177° | - | - |
| 1778038744 | 13.89° C | 88% | 1012.9 hPa | 0 mm | 2.68 m/s, 194° | - | - |
| 1778038443 | 13.89° C | 88% | 1012.8 hPa | 0 mm | 2.68 m/s, 157° | - | - |
| 1778038143 | 13.89° C | 88% | 1012.8 hPa | 0 mm | 2.68 m/s, 290° | - | - |
| 1778037845 | 13.89° C | 88% | 1012.7 hPa | 0 mm | 2.68 m/s, 163° | - | - |
| 1778037541 | 13.89° C | 88% | 1012.8 hPa | 0 mm | 2.68 m/s, 185° | - | - |
| 1778037243 | 13.89° C | 88% | 1012.8 hPa | 0 mm | 2.68 m/s, 226° | - | - |
| 1778036941 | 13.89° C | 88% | 1012.7 hPa | 0 mm | 2.24 m/s, 248° | - | - |
| 1778036641 | 13.89° C | 87% | 1012.6 hPa | 0 mm | 2.24 m/s, 234° | - | - |
| 1778036339 | 13.89° C | 87% | 1012.6 hPa | 0 mm | 2.68 m/s, 211° | - | - |
| 1778036038 | 13.89° C | 87% | 1012.5 hPa | 0 mm | 2.24 m/s, 192° | - | - |
| 1778035737 | 14.44° C | 87% | 1012.6 hPa | 0 mm | 2.24 m/s, 134° | - | - |
| 1778035439 | 14.44° C | 87% | 1012.6 hPa | 0 mm | 2.68 m/s, 176° | - | - |
| 1778035137 | 14.44° C | 87% | 1012.6 hPa | 0 mm | 2.24 m/s, 164° | - | - |
| 1778034835 | 14.44° C | 86% | 1012.7 hPa | 0 mm | 2.68 m/s, 200° | - | - |
| 1778034536 | 14.44° C | 86% | 1012.7 hPa | 0 mm | 2.68 m/s, 150° | - | - |
| 1778034235 | 14.44° C | 86% | 1012.7 hPa | 0 mm | 2.68 m/s, 173° | - | - |
| 1778033935 | 14.44° C | 85% | 1012.9 hPa | 0 mm | 2.68 m/s, 219° | - | - |
| 1778033634 | 14.44° C | 85% | 1012.9 hPa | 0 mm | 3.13 m/s, 162° | - | - |
| 1778033333 | 14.44° C | 85% | 1012.8 hPa | 0 mm | 2.68 m/s, 206° | - | - |
* Rain latest hour (hover to see other rain measurements)
** Current wind speed in m/s (hover to see current wind gust speed)